Simultaneous Nadir Overpasses (SNOs) Predictions

Prediction of SNOs near US between AQUA and NPP Satellite Orbit:

Table of predicted SNOs near US for the next 10.0 days since TLE Epoch: 2/8/2019
Index Date (AQUA) Time (AQUA) AQUA Lat,Lon Date (NPP) Time (NPP) NPP Lat,Lon Distance(km) Time Diff (sec)
1 02/10/2019 07:18:54 49.93, -75.95 02/10/2019 07:20:19 50.39, -78.23 170.43 85
2 02/10/2019 08:57:47 49.93,-100.67 02/10/2019 09:01:47 50.49,-103.56 214.85 240
3 02/12/2019 18:17:05 49.98, -80.18 02/12/2019 18:10:35 49.67, -81.79 120.21 390
4 02/12/2019 19:55:58 49.98,-104.90 02/12/2019 19:52:04 49.62,-107.14 165.44 234
5 02/12/2019 21:31:08 36.68,-124.98 02/12/2019 21:29:42 36.19,-127.62 241.98 86
6 02/15/2019 09:24:12 21.64,-113.84 02/15/2019 09:16:19 21.73,-114.38 56.62 473
7 02/18/2019 06:30:30 46.26, -65.04 02/18/2019 06:30:34 46.70, -67.11 165.67 4
8 02/18/2019 08:08:21 49.94, -88.30 02/18/2019 08:10:59 50.43, -90.89 192.27 158
9 02/18/2019 09:47:15 49.88,-113.04 02/18/2019 09:52:27 50.54,-116.21 237.02 312




NCC Satellite Simultaneous Nadir Overpasses (SNOs) Prediction Service
